Regional Weather Roundup
Issued by NWS Green Bay, WI

Home | Current Version | Previous Version | Text Only | Print | Product List | Glossary On
Versions: 1 2 3 4 5 6 7 8 9 10 11 12 13 14 15 16 17 18 19 20 21 22 23 24 25 26 27 28 29 30 31 32 33 34 35 36 37 38 39 40 41 42 43 44 45 46 47 48 49 50
000
ASUS43 KGRB 030110
RWRGRB

NORTH-CENTRAL AND NORTHEAST WISCONSIN REGIONAL WEATHER ROUNDUP
NATIONAL WEATHER SERVICE GREEN BAY WI
700 PM CST MON MAR 02 2015

WIZ005-009-010>012-018-019-030200-
NORTH CENTRAL WISCONSIN

CITY           SKY/WX    TMP DP  RH WIND       PRES   REMARKS
IRONWOOD       CLEAR     23   0  36 S5        30.14F
MANITOWISH WTR CLEAR     16  -1  47 S3        30.16F
ARBOR VITAE      N/A     18  -1  45 S7        30.17F WCI   8
EAGLE RIVER    CLEAR     20  -1  39 CALM      30.17F
LAND O LAKES   CLEAR     18  -1  43 CALM      30.17F
RHINELANDER    CLEAR     19   3  49 S8        30.20F WCI   9
PHILLIPS       PTCLDY    17   1  48 S6        30.18F WCI   9
ANTIGO         CLEAR     11  -1  58 CALM      30.22F
TOMAHAWK       CLEAR     14   4  63 CALM      30.21F
MERRILL        CLEAR     15   3  59 CALM      30.23F
$$

WIZ013-073-030200-
NORTHEAST WISCONSIN

CITY           SKY/WX    TMP DP  RH WIND       PRES   REMARKS
IRON MOUNTAIN  NOT AVBL
MARINETTE      CLEAR     21   9  58 SW8       30.30F
OCONTO         CLEAR     21  10  62 CALM      30.31F
$$

WIZ017-030-035>037-045-030200-
CENTRAL WISCONSIN

CITY           SKY/WX    TMP DP  RH WIND       PRES   REMARKS
MEDFORD        PTCLDY    19   3  51 SE5       30.19F
WAUSAU         PTCLDY    21   4  47 SE5       30.22F
MOSINEE        CLEAR     19   0  42 CALM      30.24F
MARSHFIELD     MOCLDY    22   8  55 SE3       30.22F
WISC RAPIDS    MOCLDY    24   3  40 S3        30.27F
STEVENS POINT  PTCLDY    21   5  50 SE3       30.26F
WAUPACA        MOCLDY    27  11  51 SE6       30.28F
SHAWANO        CLEAR     23   6  48 CALM      30.29F
CLINTONVILLE   PTCLDY    21   9  58 SE5       30.29F
$$

WIZ038-039-048-051-030200-
FOX VALLEY

CITY           SKY/WX    TMP DP  RH WIND       PRES   REMARKS
NWS GREEN BAY  PTCLDY    23  13  65 S6        30.31F
APPLETON       MOCLDY    19  10  68 VRB5      30.30F
OSHKOSH        CLOUDY    24  13  62 S8        30.31F
FOND DU LAC    CLOUDY    25  11  55 S7        30.31F
$$

WIZ022-050-052-030200-
EAST CENTRAL WISCONSIN

CITY           SKY/WX    TMP DP  RH WIND       PRES   REMARKS
STURGEON BAY   CLEAR     19  10  68 S5        30.34F
MANITOWOC      MOCLDY    23  16  74 SW7       30.33F
SHEBOYGAN      CLOUDY    24  15  68 S9        30.33F
$$

LMZ563-521-522-541>543-030200-
LAKESHORE

STATION/POSITION TIME  TEMP    WIND        PRES    VSBY  WAVE
                       AIR SEA DIR/SP/G                  HT/PER
                 (UTC) (F)     (DEG/KT/KT) (MB)    (MI)  (FT/S)
SHEBOYGAN LKSHOR 0100   26     180/ 15/ 16 1028.5F
KEWAUNEE LKSHORE 0100          210/  9/ 11   N/A
TWO RIVERS CG    0100   21                 1030.4
NORTHPORT PIER   0100   23     160/  5/  9 1026.4F
SISTER BAY LKSHO 0100   21     180/  7/  9   N/A
CHAMBERS ISLAND  0100   20     160/  4/  7 1026.8F
MENOMINEE LKSHOR 0100          170/  6       N/A
$$


USA.gov is the U.S. government's official web portal to all federal, state and local government web resources and services.